www.pogodaiklimat.ru

Погода и климат >> Архив погоды >> Болгария >> София


АРХИВ ПОГОДЫ в Софии

Время (UTC), дата Ветер
(напр.,м/с)
 
Видим.   Явления Облачность Т
(С)
Тd
(С)
f
(%)
Тe
(С)
Тes
(С)
Комфортность P
(гПа)
Po
(гПа)
Тmin
(С)
Tmax
(С)
R
(мм)
R24
(мм)
S
(см)
00 15.07 штиль 0 15 км {ливн. осадки} 4/3 1000 м
[Cu med, cong Ci fib]
+14.1 +12.3 89 +14 +14 прохладно 1010.7 942.5 +13.9 +16.8 1
03 15.07 штиль 0 15 км 8/8 1000 м
[Cu med, cong]
+12.8 +11.7 93 +12 +12 холодно 1011.0 942.5 +12.8 +16.8
06 15.07 З 3 8000 м дымка 6/6 1000 м
[Cu Sc]
+16.0 +12.7 81 +16 +18 прохладно 1009.7 942.0 +12.8 +16.8 1
09 15.07 З 2 15 км 6/5 1000 м
[Cu med, cong Ci fib]
+19.1 +11.7 62 +21 +29 комфорт 1009.0 942.0 +15.6 +19.4
12 15.07 СЗ 1 20 км 5/5 1000 м
[Cu med, cong]
+22.3 +11.3 50 +24 +34 комфорт 1007.8 941.6 +15.6 +22.4
15 15.07 штиль 0 20 км 5/5 1000 м
[Cu med, cong]
+22.2 +11.0 49 +24 +28 комфорт 1007.8 941.6 +15.6 +23.6
18 15.07 СЗ 1 20 км 8/6 1000 м
[Cu Sc Ci fib]
+19.7 +11.8 60 +22 +22 комфорт 1008.9 942.1 +15.6 +23.6
21 15.07 штиль 0 15 км 4/3 1000 м
[Cu med, cong Ci fib]
+15.8 +12.3 80 +16 +16 прохладно 1011.1 943.3 +15.2 +23.6
00 16.07 штиль 0 15 км 3/0
[Ci fib]
+12.3 +11.0 92 +12 +12 холодно 1012.2 943.5 +12.2 +16.3
03 16.07 штиль 0 15 км 6/4 1000 м
[Cu med, cong Ci fib]
+10.9 +9.9 94 +10 +10 очень
холодно
1012.5 943.4 +10.9 +20.0
06 16.07 З 1 28 км 8/5 1000 м
[Sc Ac trans Ci fib]
+14.8 +11.5 81 +15 +18 прохладно 1011.5 943.4 +10.9 +20.0
09 16.07 СВ 1 30 км 6/4 1000 м
[Cu med, cong Ci fib]
+21.2 +12.0 56 +23 +35 комфорт 1009.5 943.0 +14.7 +21.2
12 16.07 С 3 28 км 8/6 1000 м
[Sc Ci fib]
+22.0 +9.8 46 +24 +29 комфорт 1008.9 942.5 +14.7 +23.2
15 16.07 С 1 28 км 9/9 1000 м
[Cu Sc]
+21.4 +11.2 52 +23 +24 комфорт 1008.7 942.2 +14.7 +23.2
18 16.07 штиль 0 15 км 8/8 1000 м
[Cu Sc]
+18.8 +13.1 69 +20 +20 прохладно 1009.8 942.7 +14.7 +23.2
21 16.07 штиль 0 15 км 5/3 1000 м
[Cu hum Ci fib]
+15.6 +12.8 83 +15 +15 холодно 1011.2 943.3 +15.6 +18.9
00 17.07 штиль 0 15 км 3/1 1000 м
[Cu hum Ci fib]
+12.7 +11.6 93 +12 +12 холодно 1012.3 943.7 +12.7 +18.9
03 17.07 штиль 0 18 км 3/1 1000 м
[Cu hum Ci fib]
+10.7 +10.1 96 +10 +10 очень
холодно
1013.0 943.8 +10.7 +18.9
06 17.07 штиль 0 20 км 3/3 1000 м
[Cu hum Ac lent]
+16.6 +11.6 72 +17 +22 по сезону 1012.0 944.3 +10.3 +18.9
09 17.07 штиль 0 25 км 5/5 1000 м
[Cu med, cong]
+21.9 +11.0 50 +24 +35 комфорт 1010.4 943.9 +16.2 +21.9
12 17.07 штиль 0 25 км 8/8 1000 м
[Cu med, cong]
+24.3 +11.3 44 +26 +30 жарко 1009.2 943.3 +16.2 +24.3
15 17.07 В 2 25 км 6/6 1000 м
[Cu med, cong]
+24.8 +10.2 40 +26 +28 жарко 1008.8 943.0 +16.2 +25.4
18 17.07 С 2 25 км 6/5 1000 м
[Cu med, cong Ci fib]
+23.0 +8.3 39 +24 +24 комфорт 1008.8 942.6 +16.2 +25.4
21 17.07 Ю 1 23 км 4/3 1000 м
[Cu hum Ac trans]
+17.2 +11.5 69 +18 +18 прохладно 1011.1 943.6 +17.2 +23.0
00 18.07 ЮВ 3 23 км 1/1 1000 м
[Cu hum]
+12.8 +9.4 80 +11 +11 холодно 1012.8 944.1 +12.8 +23.0
03 18.07 штиль 0 24 км 3/1 1000 м
[Cu hum Ac lent]
+10.1 +9.1 94 +9 +9 очень
холодно
1013.7 944.3 +10.1 +23.0
06 18.07 штиль 0 25 км 3/1 1000 м
[Cu hum Ci fib]
+17.2 +11.5 69 +17 +24 по сезону 1012.6 945.0 +9.6 +23.0
09 18.07 СЗ 3 27 км 3/1 1000 м
[Cu hum Ci fib]
+23.0 +10.0 44 +25 +37 комфорт 1011.1 944.8 +16.8 +23.0
12 18.07 З 2 30 км 4/3 1000 м
[Cu hum Ci fib]
+26.0 +9.1 34 +26 +38 жарко 1010.6 944.9 +16.8 +26.0
15 18.07 С 3 30 км 4/3 1000 м
[Cu hum Ci fib]
+27.8 +9.6 32 +28 +31 жарко 1009.4 944.2 +16.8 +27.8
18 18.07 штиль 0 30 км 8/3 1000 м
[Cu hum Ci fib]
+23.0 +12.0 50 +26 +26 жарко 1011.1 944.8 +16.8 +27.9
21 18.07 штиль 0 25 км 4/3 1000 м
[Cu hum Ci fib]
+18.9 +10.6 59 +20 +20 по сезону 1014.1 946.7 +18.9 +23.5
00 19.07 штиль 0 25 км 4/3 1000 м
[Cu hum Ci fib]
+15.7 +10.4 71 +16 +16 по сезону 1015.6 947.4 +13.8 +23.5
03 19.07 штиль 0 30 км 3/1 1000 м
[Cu hum Ci fib]
+14.2 +11.3 83 +14 +14 прохладно 1016.6 948.0 +13.8 +23.5
06 19.07 штиль 0 25 км 3/3 1000 м
[Cu hum]
+17.9 +11.9 68 +18 +23 по сезону 1016.0 948.3 +12.5 +23.5
09 19.07 В 2 20 км 3/3 1000 м
[Cu med, cong]
+24.6 +13.0 48 +27 +39 жарко 1014.3 948.2 +17.6 +24.6
12 19.07 Ю 3 18 км 6/6 1000 м
[Cb calv]
+26.7 +13.3 44 +29 +34 жарко 1013.3 947.7 +17.6 +26.8
15 19.07 Ю 2 20 км 8/6 1000 м
[Cb calv Ci sp]
+23.7 +12.0 48 +25 +27 комфорт 1014.8 948.4 +17.6 +27.8
18 19.07 С 1 20 км 8/8 1000 м
[Cb calv]
+20.4 +12.4 60 +24 +24 комфорт 1016.6 949.4 +17.6 +27.8
21 19.07 штиль 0 18 км 8/5 1000 м
[Cu hum Ac trans Ci fib]
+18.0 +13.0 73 +18 +18 прохладно 1017.7 949.9 +18.0 +20.9
00 20.07 штиль 0 18 км 1/0
[Ci fib]
+14.3 +13.1 92 +14 +14 прохладно 1019.1 950.4 +14.3 +20.9
03 20.07 штиль 0 20 км 1/0
[Ci fib]
+13.1 +11.3 89 +13 +13 холодно 1019.4 950.4 +12.2 +20.9
06 20.07 штиль 0 20 км 1/0
[Ac trans]
+17.3 +12.8 75 +17 +25 по сезону 1019.7 951.6 +12.2 +20.9
09 20.07 В 2 20 км 3/3 1000 м
[Cu hum]
+23.5 +13.2 52 +26 +38 жарко 1018.3 951.7 +17.1 +23.5
12 20.07 В 2 25 км 6/5 1000 м
[Cu med, cong Ci fib]
+27.8 +9.8 32 +28 +36 жарко 1016.9 951.2 +17.1 +27.8
15 20.07 В 3 25 км 5/3 1000 м
[Cu med, cong Ci fib]
+27.0 +11.7 39 +28 +31 жарко 1016.6 950.8 +17.1 +28.2
18 20.07 ЮВ 1 25 км 3/3 1000 м
[Cu med, cong Ac trans]
+24.7 +13.9 51 +27 +27 жарко 1016.8 950.6 +17.1 +28.2
21 20.07 ЮВ 2 20 км 3/0
[Ac trans]
+20.5 +13.3 63 +23 +23 комфорт 1019.0 951.7 +20.2 +24.7
00 21.07 штиль 0 20 км ясно +15.1 +12.4 84 +15 +15 прохладно 1020.3 951.7 +15.1 +24.7
03 21.07 Ю 1 20 км ясно +15.7 +11.9 78 +16 +16 прохладно 1020.4 951.9 +14.6 +24.7
06 21.07 штиль 0 25 км 3/1 1000 м
[Cu hum Ci fib]
+19.1 +13.4 70 +20 +27 тепло 1020.2 952.5 +14.6 +24.7
09 21.07 штиль 0 27 км 1/1 1000 м
[Cu hum]
+25.3 +12.6 45 +27 +48 жарко 1018.2 952.0 +18.5 +25.4
12 21.07 З 1 30 км 3/3 1000 м
[Cu med, cong]
+29.3 +8.3 27 +29 +42 жарко 1016.9 951.5 +18.5 +29.3
15 21.07 штиль 0 30 км 4/3 1000 м
[Cu med, cong Ci fib]
+29.8 +11.6 33 +30 +35 жарко 1015.8 950.7 +18.5 +30.4
18 21.07 штиль 0 25 км 3/0
[Ci fib]
+26.3 +14.0 47 +29 +29 жарко 1016.5 950.6 +18.5 +30.4
21 21.07 штиль 0 20 км 3/1 1000 м
[Cu hum Ci fib]
+20.6 +14.8 69 +23 +23 комфорт 1019.0 951.8 +20.6 +27.1

 

Местоположение метеостанции София (Болгария): широта 42.65 долгота 23.38 высота над уровнем моря 591 м.

В архиве по умолчанию представлена погода в Софии за последнюю неделю. Архивные данные за месяц целиком и за предыдущие месяцы, начиная с января 2011 года, Вы можете получить, выбрав интересующий диапазон дат из раскрывающегося списка и нажав кнопку "Ввод!".


*Определитесь, кто Вы:
робот инопланетянин человек

Внимание! Время в таблицах - всемирное. Для получения местного времени необходимо прибавить поправку, которая равна 2 ч.

Смотрите также архив погоды в соседних городах и на ближайших метеорологических станциях:

Погода на Мургаше-Врыхе (Болгария) (31 км)
Погода на Мусале (Болгария) (55 км)
Погода в Димитровграде (Сербия) (66 км)
Погода в Крива-Паланке (Македония) (100 км)
Погода в Винице (Македония) (112 км)
Погода в Берово (Македония) (112 км)
Погода во Вране (Черногория) (120 км)
Погода в Ловече (Болгария) (122 км)
Погода в Лесковаце (Сербия) (122 км)
Погода в Сандански (Болгария) (126 км)

Пояснения к столбцам:

Ветер - указаны скорость ветра в м/с - средняя за 10 мин, порывы в срок и между сроками (в фигурных скобках) и направление, откуда дует ветер: С - северный, СВ - северо-восточный, В - восточный, ЮВ - юго-восточный, Ю - южный, ЮЗ - юго-западный, З - западный, СЗ - северо-западный.
Видимость - горизонтальная дальность видимости в метрах или километрах. При видимости от 1 до 10 км при отсутствии осадков обычно наблюдается дымка, при ухудшении видимости до 1 км и менее - туман. В сухую погоду видимость может ухудшаться дымом, пылью или мглою.
Явления - указаны атмосферные явления, наблюдавшиеся в срок или в последний час перед сроком; фигурными скобками обозначены явления, наблюдавшиеся между сроками (за 1-3 часа до срока); квадратными скобками обозначены град или гололедные отложения с указанием их диаметра в мм.
Облачность - указаны через наклонную черту общая и нижняя облачность в баллах и высота нижней границы облаков в метрах; квадратными скобками обозначены формы облаков: Ci - перистые, Cs - перисто-слоистые, Cc - перисто-кучевые, Ac - высококучевые, As - высокослоистые, Sc - слоисто-кучевые, Ns - слоисто-дождевые, Cu - кучевые, Cb - кучево-дождевые. Подробнее классификацию облаков см. в Атласе облаков (PDF).
T - Температура воздуха - температура, измеренная на высоте 2 м над землей.
Td - Температура точки росы - температура, при понижении до которой содержащийся в воздухе водяной пар достигнет насыщения.
f - Относительная влажность воздуха - влажноcть воздуха, измеренная на высоте 2 м над землей.
Te - Эффективная температура - температура, которую ощущает одетый по сезону человек в тени. Характеристика душности погоды. При расчете учитывается влияние влажности воздуха и скорости ветра на теплоощущения человека.
Tes - Эффективная температура на солнце - температура, которую ощущает человек, с поправкой на солнечный нагрев. Характеристика знойности погоды. Зависит от высоты солнца над горизонтом, облачности и скорости ветра. Ночью, в пасмурную погоду, а также при ветре 12 м/с и более поправка равна нулю.
P - Атмосферное давление - приведенное к уровню моря атмосферное давление.
Po - Атмосферное давление - измеренное на уровне метеостанции атмосферное давление.
Tmin - Минимальная температура - минимум температуры воздуха на высоте 2 м над землей.
Tmax - Максимальная температура - максимум температуры воздуха на высоте 2 м над землей.
R - Количество осадков - Количество выпавших осадков за период времени, мм. При наведении курсора мыши на число - период времени, за который выпало указанное количество осадков.
R24 - Количество осадков - Количество выпавших осадков за 24 часа, мм.
S - Снежный покров - Высота снежного покрова, см. При наведении курсора мыши на число - состояние снежного покрова и степень покрытия местности в баллах.